Find Starlink 32657

NORAD ID: 62475 Int'l Des: 2024-254 Owner: SPXS Country: US Constellation: starlink operational
LEOCIRCULAR

实时位置

正在加载3D地球...

关于 Starlink 32657

正在加载描述...

即将过境

Passes for default location (London). Set your location on the main map for personalized predictions.

高度历史

Loading altitude history...

两行轨道根数

1 62475U 24254P 26122.29833862 .00035804 00000-0 13032-2 0 9996
2 62475 42.9993 76.9182 0001431 270.9966 89.0721 15.27606749 75661
Epoch: May 2, 2026 • Age: 9 hours

当前状态

高度 494.9 km
速度 7.62 km/s
星下点 -42.38°S, 105.91°W
发射日期 Dec 31, 2024
运行时间 1.3 years
类型 internet

技术详情

分类 Payload
质量 730.00 kg
干质量 700.00 kg
总质量 730.00 kg
长度 0.30 m
直径 4.10 m
跨度 29.00 m
形状 Box + pan
制造商 SPXS
平台类型 Starlink V2M
阶段状态 In Orbit
所有者/国家 SPXS/US

Most Searched